Date String (YYYY-MM-DD hh:mm:ss) UTC,Instrument flags,Ambient pressure (hPa),Sample flow (lpm),Bypass flow (lpm),Sample temperature (°C),Ambient temperature (°C),ASC tube jacket temperature (°C),LED temperature (°C),Box temperature (°C),Sample RH (%),Span deviation,Mass concentration (μg/m³),Mass concentration (μg/m³),Mass concentration (μg/m³)
DateTimeUTC,F1_M11,P_M11,Q1_M11,Q2_M11,T1_M11,T2_M11,T3_M11,T4_M11,T5_M11,U1_M11,ZSPAN_M11,X0_M11,X2_M11,X1_M11
2023-04-26 07:00:00,,0830.4,5.00,0.00,22.7,21.1,00.0,31.1,24.3,27.6,0000.0,0001.55,0000.86,0000.56
2023-04-26 07:01:00,,0830.4,5.01,0.00,22.7,21.2,00.0,31.1,24.3,27.6,0000.0,0001.53,0000.86,0000.55
2023-04-26 07:02:00,,0830.6,4.99,0.00,22.7,21.2,00.0,31.1,24.3,27.7,0000.0,0001.41,0000.81,0000.54
2023-04-26 07:03:00,,0830.7,5.00,0.00,22.7,21.2,00.0,31.1,24.3,27.6,0000.0,0001.36,0000.80,0000.54
2023-04-26 07:04:00,,0830.7,4.99,0.00,22.7,21.2,00.0,31.1,24.3,27.6,0000.0,0001.40,0000.81,0000.55
2023-04-26 07:05:00,,0830.8,5.00,0.00,22.7,21.2,00.0,31.1,24.3,27.7,0000.0,0001.40,0000.81,0000.54
2023-04-26 07:06:00,,0830.6,5.00,0.00,22.7,21.2,00.0,31.1,24.3,27.7,0000.0,0001.35,0000.78,0000.54
2023-04-26 07:07:00,,0830.6,5.00,0.00,22.7,21.2,00.0,31.1,24.3,27.7,0000.0,0001.32,0000.77,0000.54
2023-04-26 07:08:00,,0830.6,5.01,0.00,22.7,21.2,00.0,31.1,24.3,27.7,0000.0,0001.35,0000.78,0000.55
2023-04-26 07:09:00,,0830.6,5.00,0.00,22.7,21.2,00.0,31.1,24.3,27.8,0000.0,0001.28,0000.78,0000.56
2023-04-26 07:10:00,,0830.6,5.00,0.00,22.7,21.1,00.0,31.1,24.2,27.8,0000.0,0001.41,0000.85,0000.61
2023-04-26 07:11:00,,0830.6,5.00,0.00,22.7,21.1,00.0,31.1,24.3,27.8,0000.0,0001.62,0000.93,0000.65
2023-04-26 07:12:00,,0830.6,4.99,0.00,22.7,21.1,00.0,31.1,24.3,27.8,0000.0,0001.78,0001.02,0000.72
2023-04-26 07:13:00,,0830.6,5.00,0.00,22.7,21.1,00.0,31.1,24.3,27.8,0000.0,0001.99,0001.12,0000.77
2023-04-26 07:14:00,,0830.5,5.00,0.00,22.7,21.1,00.0,31.1,24.3,27.8,0000.0,0002.16,0001.18,0000.82
2023-04-26 07:15:00,,0830.6,5.00,0.00,22.7,21.1,00.0,31.1,24.3,27.8,0000.0,0002.17,0001.19,0000.85
2023-04-26 07:16:00,,0830.5,5.01,0.00,22.7,21.2,00.0,31.1,24.3,27.9,0000.0,0002.25,0001.25,0000.89
2023-04-26 07:17:00,,0830.6,5.00,0.00,22.7,21.1,00.0,31.1,24.2,27.9,0000.0,0002.23,0001.26,0000.91
2023-04-26 07:18:00,,0830.6,5.00,0.00,22.7,21.1,00.0,31.1,24.2,27.9,0000.0,0002.17,0001.25,0000.92
2023-04-26 07:19:00,,0830.6,5.00,0.00,22.6,21.1,00.0,31.1,24.2,27.9,0000.0,0002.16,0001.26,0000.94
2023-04-26 07:20:00,,0830.6,5.00,0.00,22.6,21.1,00.0,31.1,24.2,28.0,0000.0,0002.14,0001.26,0000.95
2023-04-26 07:21:00,,0830.6,5.00,0.00,22.6,21.1,00.0,31.1,24.2,28.0,0000.0,0002.09,0001.24,0000.93
2023-04-26 07:22:00,,0830.6,4.98,0.00,22.6,21.1,00.0,31.1,24.2,28.0,0000.0,0001.91,0001.18,0000.90
2023-04-26 07:23:00,,0830.7,4.99,0.00,22.6,21.1,00.0,31.0,24.2,28.0,0000.0,0001.73,0001.10,0000.86
2023-04-26 07:24:00,,0830.7,5.01,0.00,22.6,21.1,00.0,31.0,24.2,28.0,0000.0,0001.53,0001.01,0000.82
2023-04-26 07:25:00,,0830.7,5.00,0.00,22.6,21.1,00.0,31.0,24.2,28.1,0000.0,0001.39,0000.98,0000.80
2023-04-26 07:26:00,,0830.7,4.98,0.00,22.6,21.1,00.0,31.0,24.2,28.1,0000.0,0001.65,0000.96,0000.78
2023-04-26 07:27:00,,0830.7,4.99,0.00,22.6,21.1,00.0,31.0,24.2,28.1,0000.0,0001.85,0000.90,0000.78
2023-04-26 07:28:00,,0830.8,5.00,0.00,22.6,21.1,00.0,31.0,24.2,28.1,0000.0,0001.82,0000.89,0000.78
2023-04-26 07:29:00,,0830.7,5.01,0.00,22.6,21.1,00.0,31.0,24.2,28.1,0000.0,0001.94,0000.94,0000.79
2023-04-26 07:30:00,,0830.7,5.01,0.00,22.6,21.1,00.0,31.0,24.2,28.1,0000.0,0001.94,0000.94,0000.80
2023-04-26 07:31:00,,0830.7,5.00,0.00,22.6,21.2,00.0,31.0,24.3,28.1,0000.0,0001.91,0000.93,0000.81
2023-04-26 07:32:00,,0830.7,5.00,0.00,22.6,21.2,00.0,31.0,24.2,28.1,0000.0,0001.96,0000.96,0000.83
2023-04-26 07:33:00,,0830.8,4.99,0.00,22.6,21.2,00.0,31.0,24.2,28.1,0000.0,0001.92,0000.96,0000.84
2023-04-26 07:34:00,,0830.8,4.99,0.00,22.6,21.2,00.0,31.0,24.2,28.1,0000.0,0001.94,0000.99,0000.86
2023-04-26 07:35:00,,0830.8,5.00,0.00,22.6,21.2,00.0,31.0,24.2,28.1,0000.0,0001.97,0001.01,0000.88
2023-04-26 07:36:00,,0830.9,5.01,0.00,22.6,21.2,00.0,31.0,24.2,28.2,0000.0,0002.08,0001.06,0000.90
2023-04-26 07:37:00,,0830.8,5.00,0.00,22.6,21.2,00.0,31.0,24.2,28.1,0000.0,0001.91,0001.09,0000.92
2023-04-26 07:38:00,,0830.9,5.00,0.00,22.6,21.1,00.0,31.0,24.2,28.1,0000.0,0001.50,0001.10,0000.93
2023-04-26 07:39:00,,0830.8,5.00,0.00,22.6,21.1,00.0,31.0,24.2,28.0,0000.0,0001.48,0001.09,0000.93
2023-04-26 07:40:00,,0830.9,5.00,0.00,22.6,21.1,00.0,31.0,24.2,28.1,0000.0,0001.38,0001.06,0000.94
2023-04-26 07:41:00,,0830.8,5.00,0.00,22.6,21.1,00.0,31.0,24.1,28.0,0000.0,0001.42,0001.08,0000.94
2023-04-26 07:42:00,,0830.8,5.00,0.00,22.6,21.0,00.0,31.0,24.1,28.1,0000.0,0001.48,0001.11,0000.96
2023-04-26 07:43:00,,0830.9,5.00,0.00,22.6,21.0,00.0,31.0,24.1,28.1,0000.0,0001.46,0001.11,0000.97
2023-04-26 07:44:00,,0830.9,5.00,0.00,22.5,20.9,00.0,31.0,24.1,28.1,0000.0,0001.60,0001.14,0000.98
2023-04-26 07:45:00,,0830.9,5.00,0.00,22.5,20.9,00.0,31.0,24.1,28.2,0000.0,0001.74,0001.16,0000.98
2023-04-26 07:46:00,,0830.9,4.99,0.00,22.5,20.9,00.0,31.0,24.1,28.1,0000.0,0001.78,0001.15,0000.97
2023-04-26 07:47:00,,0830.8,5.00,0.00,22.5,20.9,00.0,31.0,24.1,28.2,0000.0,0001.78,0001.14,0000.96
2023-04-26 07:48:00,,0830.9,5.00,0.00,22.5,20.9,00.0,31.0,24.1,28.1,0000.0,0001.70,0001.11,0000.94
2023-04-26 07:49:00,,0830.9,5.00,0.00,22.5,21.0,00.0,31.0,24.1,28.0,0000.0,0001.66,0001.08,0000.92
2023-04-26 07:50:00,,0830.9,5.01,0.00,22.5,21.0,00.0,31.0,24.1,28.0,0000.0,0001.66,0001.08,0000.90
2023-04-26 07:51:00,,0830.9,5.00,0.00,22.5,21.0,00.0,31.0,24.1,28.0,0000.0,0001.74,0001.10,0000.90
2023-04-26 07:52:00,,0830.9,4.99,0.00,22.5,21.0,00.0,31.0,24.1,28.0,0000.0,0001.76,0001.10,0000.88
2023-04-26 07:53:00,,0830.9,5.00,0.00,22.5,21.0,00.0,30.9,24.1,28.0,0000.0,0001.68,0001.05,0000.85
2023-04-26 07:54:00,,0830.9,5.00,0.00,22.5,21.0,00.0,30.9,24.1,28.0,0000.0,0001.62,0001.02,0000.83
2023-04-26 07:55:00,,0830.9,5.00,0.00,22.5,21.0,00.0,30.9,24.1,28.0,0000.0,0001.52,0000.98,0000.81
2023-04-26 07:56:00,,0830.9,5.00,0.00,22.5,21.0,00.0,30.9,24.1,28.0,0000.0,0001.36,0000.97,0000.80
2023-04-26 07:57:00,,0830.9,5.00,0.00,22.5,21.0,00.0,30.9,24.1,28.0,0000.0,0001.32,0000.97,0000.80
2023-04-26 07:58:00,,0830.9,4.99,0.00,22.5,21.1,00.0,30.9,24.0,28.0,0000.0,0001.25,0000.95,0000.80
2023-04-26 07:59:00,,0830.9,5.00,0.00,22.5,21.1,00.0,30.9,24.0,28.0,0000.0,0001.25,0000.95,0000.80
